Powrót do katalogu

STARLINK-37632

AktywnyŁącznośćVLEO
NORAD 69374·PAYLOAD·🇺🇸 United States

Wystrzelony Jun 4, 2026 z Cape Canaveral Space Force Station

Loading…

Następne Przeloty (najbliższe 24 godziny)

TLE

ŚwieżeSource: CelesTrak SupGP

Epoka: Sep 14, 2026, 23:19 UTC

1 69374C 26123X   26257.97201389 -.00061966  00000+0 -18306-2 0  2570
2 69374  53.1576 167.6733 0001307  85.5955 116.5625 15.34425471    12

Śledź STARLINK-37632 w czasie rzeczywistym z AllMySat

Download on the App Store